Time,TemperatureF,DewpointF,PressureIn,WindDirection,WindDirectionDegrees,WindSpeedMPH,WindSpeedGustMPH,Humidity,HourlyPrecipIn,Conditions,Clouds,dailyrainin,SoftwareType,DateUTC
2013-02-03 00:00:00,19.2,10.6,30.12,NNE,23,0.0,0.0,69,0.00,,,0.00,WUHU216HW,2013-02-03 05:00:00,
2013-02-03 00:01:00,19.2,10.6,30.12,NNE,23,0.0,0.0,69,0.00,,,0.00,WUHU216HW,2013-02-03 05:01:00,
2013-02-03 00:03:00,19.2,10.6,30.12,NNE,23,0.0,0.0,69,0.00,,,0.00,WUHU216HW,2013-02-03 05:03:00,
2013-02-03 00:08:00,19.2,10.9,30.12,NNE,23,0.0,0.0,70,0.00,,,0.00,WUHU216HW,2013-02-03 05:08:00,
2013-02-03 00:13:00,19.0,10.7,30.12,NNE,23,0.0,0.0,70,0.00,,,0.00,WUHU216HW,2013-02-03 05:13:00,
2013-02-03 00:19:00,18.8,10.6,30.12,NNE,23,0.0,0.0,70,0.00,,,0.00,WUHU216HW,2013-02-03 05:19:00,
2013-02-03 00:24:00,18.8,10.6,30.12,NNE,23,0.0,0.0,70,0.00,,,0.00,WUHU216HW,2013-02-03 05:24:00,
2013-02-03 00:29:00,19.0,10.7,30.12,NNE,23,0.0,0.0,70,0.00,,,0.00,WUHU216HW,2013-02-03 05:29:00,
2013-02-03 00:34:00,19.0,10.7,30.12,NNE,23,0.0,0.0,70,0.00,,,0.00,WUHU216HW,2013-02-03 05:34:00,
2013-02-03 00:39:00,19.0,10.7,30.12,NNE,23,0.0,0.0,70,0.00,,,0.00,WUHU216HW,2013-02-03 05:39:00,
2013-02-03 00:44:00,19.0,10.7,30.12,NNE,23,0.0,0.0,70,0.00,,,0.00,WUHU216HW,2013-02-03 05:44:00,
2013-02-03 00:49:00,19.2,11.2,30.11,ESE,113,0.0,0.0,71,0.00,,,0.00,WUHU216HW,2013-02-03 05:49:00,
2013-02-03 00:54:00,19.2,11.2,30.11,ESE,113,0.0,0.0,71,0.00,,,0.00,WUHU216HW,2013-02-03 05:54:00,
2013-02-03 00:59:00,19.2,11.2,30.11,ESE,113,0.0,0.0,71,0.00,,,0.00,WUHU216HW,2013-02-03 05:59:00,
2013-02-03 01:07:00,19.2,11.2,30.11,ESE,113,0.0,0.0,71,0.00,,,0.00,WUHU216HW,2013-02-03 06:07:00,
2013-02-03 01:12:00,19.0,11.0,30.11,ESE,113,0.0,0.0,71,0.00,,,0.00,WUHU216HW,2013-02-03 06:12:00,
2013-02-03 01:17:00,18.8,10.9,30.11,ESE,113,0.0,0.0,71,0.00,,,0.00,WUHU216HW,2013-02-03 06:17:00,
2013-02-03 01:22:00,18.8,10.9,30.11,ESE,113,0.0,0.0,71,0.00,,,0.00,WUHU216HW,2013-02-03 06:22:00,
2013-02-03 01:27:00,18.8,10.9,30.10,ESE,113,0.0,0.0,71,0.00,,,0.00,WUHU216HW,2013-02-03 06:27:00,
2013-02-03 01:32:00,18.8,10.9,30.10,ESE,113,0.0,0.0,71,0.00,,,0.00,WUHU216HW,2013-02-03 06:32:00,
2013-02-03 01:37:00,18.6,10.7,30.10,ESE,113,0.0,0.0,71,0.00,,,0.00,WUHU216HW,2013-02-03 06:37:00,
2013-02-03 01:42:00,18.6,10.7,30.11,ESE,113,0.0,0.0,71,0.00,,,0.00,WUHU216HW,2013-02-03 06:42:00,
2013-02-03 01:47:00,18.5,10.5,30.10,ESE,113,0.0,0.0,71,0.00,,,0.00,WUHU216HW,2013-02-03 06:47:00,
2013-02-03 01:52:00,18.5,10.9,30.11,ESE,113,0.0,0.0,72,0.00,,,0.00,WUHU216HW,2013-02-03 06:52:00,
2013-02-03 01:57:00,18.5,10.9,30.11,ESE,113,0.0,0.0,72,0.00,,,0.00,WUHU216HW,2013-02-03 06:57:00,
2013-02-03 02:02:00,18.5,10.9,30.10,ESE,113,0.0,0.0,72,0.00,,,0.00,WUHU216HW,2013-02-03 07:02:00,
2013-02-03 02:07:00,18.3,10.7,30.11,ESE,113,0.0,0.0,72,0.00,,,0.00,WUHU216HW,2013-02-03 07:07:00,
2013-02-03 02:12:00,18.3,10.7,30.10,ESE,113,0.0,0.0,72,0.00,,,0.00,WUHU216HW,2013-02-03 07:12:00,
2013-02-03 02:17:00,18.3,10.7,30.10,ESE,113,0.0,0.0,72,0.00,,,0.00,WUHU216HW,2013-02-03 07:17:00,
2013-02-03 02:22:00,18.3,10.7,30.10,ESE,113,0.0,0.0,72,0.00,,,0.00,WUHU216HW,2013-02-03 07:22:00,
2013-02-03 02:27:00,18.3,10.7,30.09,ESE,113,0.0,0.0,72,0.00,,,0.00,WUHU216HW,2013-02-03 07:27:00,
2013-02-03 02:32:00,18.3,10.7,30.10,ESE,113,0.0,0.0,72,0.00,,,0.00,WUHU216HW,2013-02-03 07:32:00,
2013-02-03 02:37:00,18.1,10.5,30.09,ESE,113,0.0,0.0,72,0.00,,,0.00,WUHU216HW,2013-02-03 07:37:00,
2013-02-03 02:42:00,18.1,10.5,30.09,ESE,113,0.0,0.0,72,0.00,,,0.00,WUHU216HW,2013-02-03 07:42:00,
2013-02-03 02:47:00,18.3,10.7,30.09,ESE,113,0.0,0.0,72,0.00,,,0.00,WUHU216HW,2013-02-03 07:47:00,
2013-02-03 02:52:00,18.3,10.7,30.09,ESE,113,0.0,0.0,72,0.00,,,0.00,WUHU216HW,2013-02-03 07:52:00,
2013-02-03 02:57:00,18.3,10.7,30.09,ESE,113,0.0,0.0,72,0.00,,,0.00,WUHU216HW,2013-02-03 07:57:00,
2013-02-03 03:02:00,18.3,10.7,30.09,ESE,113,0.0,0.0,72,0.00,,,0.00,WUHU216HW,2013-02-03 08:02:00,
2013-02-03 03:07:00,18.3,10.7,30.08,ESE,113,0.0,0.0,72,0.00,,,0.00,WUHU216HW,2013-02-03 08:07:00,
2013-02-03 03:12:00,18.3,10.7,30.08,ESE,113,0.0,0.0,72,0.00,,,0.00,WUHU216HW,2013-02-03 08:12:00,
2013-02-03 03:17:00,18.3,10.7,30.08,ESE,113,0.0,0.0,72,0.00,,,0.00,WUHU216HW,2013-02-03 08:17:00,
2013-02-03 03:22:00,18.3,10.7,30.08,ESE,113,0.0,0.0,72,0.00,,,0.00,WUHU216HW,2013-02-03 08:22:00,
2013-02-03 03:27:00,18.3,10.7,30.08,ESE,113,0.0,0.0,72,0.00,,,0.00,WUHU216HW,2013-02-03 08:27:00,
2013-02-03 03:32:00,18.3,10.7,30.08,ESE,113,0.0,0.0,72,0.00,,,0.00,WUHU216HW,2013-02-03 08:32:00,
2013-02-03 03:37:00,18.3,10.7,30.07,ESE,113,0.0,0.0,72,0.00,,,0.00,WUHU216HW,2013-02-03 08:37:00,
2013-02-03 03:43:00,18.1,10.5,30.07,ESE,113,0.0,0.0,72,0.00,,,0.00,WUHU216HW,2013-02-03 08:43:00,
2013-02-03 03:48:00,17.9,10.4,30.07,ESE,113,0.0,0.0,72,0.00,,,0.00,WUHU216HW,2013-02-03 08:48:00,
2013-02-03 03:53:00,17.9,10.4,30.07,ESE,113,0.0,0.0,72,0.00,,,0.00,WUHU216HW,2013-02-03 08:53:00,
2013-02-03 03:58:00,17.9,10.4,30.07,ESE,113,0.0,0.0,72,0.00,,,0.00,WUHU216HW,2013-02-03 08:58:00,
2013-02-03 04:03:00,17.9,10.4,30.07,ESE,113,0.0,0.0,72,0.00,,,0.00,WUHU216HW,2013-02-03 09:03:00,
2013-02-03 04:08:00,17.9,10.4,30.07,ESE,113,0.0,0.0,72,0.00,,,0.00,WUHU216HW,2013-02-03 09:08:00,
2013-02-03 04:13:00,17.7,10.2,30.07,ESE,113,0.0,0.0,72,0.00,,,0.00,WUHU216HW,2013-02-03 09:13:00,
2013-02-03 04:18:00,17.7,10.2,30.07,ESE,113,0.0,0.0,72,0.00,,,0.00,WUHU216HW,2013-02-03 09:18:00,
2013-02-03 04:23:00,17.4,9.6,30.07,ESE,113,0.0,0.0,71,0.00,,,0.00,WUHU216HW,2013-02-03 09:23:00,
2013-02-03 04:28:00,17.4,9.8,30.07,ESE,113,0.0,0.0,72,0.00,,,0.00,WUHU216HW,2013-02-03 09:28:00,
2013-02-03 04:33:00,17.2,9.7,30.07,ESE,113,0.0,0.0,72,0.00,,,0.00,WUHU216HW,2013-02-03 09:33:00,
2013-02-03 04:38:00,17.2,9.7,30.07,ESE,113,0.0,0.0,72,0.00,,,0.00,WUHU216HW,2013-02-03 09:38:00,
2013-02-03 04:43:00,17.2,9.7,30.07,ESE,113,0.0,0.0,72,0.00,,,0.00,WUHU216HW,2013-02-03 09:43:00,
2013-02-03 04:48:00,16.8,9.3,30.07,ESE,113,0.0,0.0,72,0.00,,,0.00,WUHU216HW,2013-02-03 09:48:00,
2013-02-03 04:53:00,16.8,9.3,30.07,ESE,113,0.0,0.0,72,0.00,,,0.00,WUHU216HW,2013-02-03 09:53:00,
2013-02-03 04:58:00,16.8,9.6,30.06,ESE,113,0.0,0.0,72,0.00,,,0.00,WUHU216HW,2013-02-03 09:58:00,
2013-02-03 05:03:00,16.7,9.4,30.06,ESE,113,0.0,0.0,72,0.00,,,0.00,WUHU216HW,2013-02-03 10:03:00,
2013-02-03 05:08:00,16.5,9.0,30.06,ESE,113,0.0,0.0,72,0.00,,,0.00,WUHU216HW,2013-02-03 10:08:00,
2013-02-03 05:13:00,16.3,9.1,30.06,ESE,113,0.0,0.0,73,0.00,,,0.00,WUHU216HW,2013-02-03 10:13:00,
2013-02-03 05:18:00,16.3,8.8,30.06,ESE,113,0.0,0.0,72,0.00,,,0.00,WUHU216HW,2013-02-03 10:18:00,
2013-02-03 05:23:00,16.1,8.6,30.06,ESE,113,0.0,0.0,72,0.00,,,0.00,WUHU216HW,2013-02-03 10:23:00,
2013-02-03 05:28:00,15.9,8.4,30.06,ESE,113,0.0,0.0,72,0.00,,,0.00,WUHU216HW,2013-02-03 10:28:00,
2013-02-03 05:33:00,15.6,8.1,30.06,ESE,113,0.0,0.0,72,0.00,,,0.00,WUHU216HW,2013-02-03 10:33:00,
2013-02-03 05:39:00,15.6,8.1,30.06,ESE,113,0.0,0.0,72,0.00,,,0.00,WUHU216HW,2013-02-03 10:39:00,
2013-02-03 05:44:00,15.4,7.9,30.06,ESE,113,0.0,0.0,72,0.00,,,0.00,WUHU216HW,2013-02-03 10:44:00,
2013-02-03 05:49:00,15.0,7.8,30.06,ESE,113,0.0,0.0,72,0.00,,,0.00,WUHU216HW,2013-02-03 10:49:00,
2013-02-03 05:54:00,14.9,7.7,30.05,ESE,113,0.0,0.0,73,0.00,,,0.00,WUHU216HW,2013-02-03 10:54:00,
2013-02-03 05:59:00,14.7,7.6,30.05,ESE,113,0.0,0.0,73,0.00,,,0.00,WUHU216HW,2013-02-03 10:59:00,
2013-02-03 06:04:00,14.5,7.4,30.06,ESE,113,0.0,0.0,73,0.00,,,0.00,WUHU216HW,2013-02-03 11:04:00,
2013-02-03 06:09:00,14.1,7.1,30.05,ESE,113,0.0,0.0,73,0.00,,,0.00,WUHU216HW,2013-02-03 11:09:00,
2013-02-03 06:14:00,13.8,6.7,30.05,ESE,113,0.0,0.0,73,0.00,,,0.00,WUHU216HW,2013-02-03 11:14:00,
2013-02-03 06:20:00,13.6,6.5,30.05,ESE,113,0.0,0.0,73,0.00,,,0.00,WUHU216HW,2013-02-03 11:20:00,
2013-02-03 06:25:00,13.2,6.2,30.05,ESE,113,0.0,0.0,73,0.00,,,0.00,WUHU216HW,2013-02-03 11:25:00,
2013-02-03 06:30:00,13.2,6.5,30.05,ESE,113,0.0,0.0,74,0.00,,,0.00,WUHU216HW,2013-02-03 11:30:00,
2013-02-03 06:35:00,12.9,6.1,30.05,ESE,113,0.0,0.0,74,0.00,,,0.00,WUHU216HW,2013-02-03 11:35:00,
2013-02-03 06:40:00,12.7,5.9,30.05,ESE,113,0.0,0.0,74,0.00,,,0.00,WUHU216HW,2013-02-03 11:40:00,
2013-02-03 06:45:00,12.5,5.7,30.05,ESE,113,0.0,0.0,74,0.00,,,0.00,WUHU216HW,2013-02-03 11:45:00,
2013-02-03 06:50:00,12.3,5.6,30.06,ESE,113,0.0,0.0,74,0.00,,,0.00,WUHU216HW,2013-02-03 11:50:00,
2013-02-03 06:55:00,12.0,5.2,30.06,ESE,113,0.0,0.0,74,0.00,,,0.00,WUHU216HW,2013-02-03 11:55:00,
2013-02-03 07:00:00,12.0,5.2,30.05,ESE,113,0.0,0.0,74,0.00,,,0.00,WUHU216HW,2013-02-03 12:00:00,
2013-02-03 07:05:00,11.8,5.0,30.05,ESE,113,0.0,0.0,74,0.00,,,0.00,WUHU216HW,2013-02-03 12:05:00,
2013-02-03 07:10:00,11.4,5.0,30.05,ESE,113,0.0,0.0,75,0.00,,,0.00,WUHU216HW,2013-02-03 12:10:00,
2013-02-03 07:15:00,11.1,4.6,30.05,ESE,113,0.0,0.0,75,0.00,,,0.00,WUHU216HW,2013-02-03 12:15:00,
2013-02-03 07:20:00,11.1,4.6,30.05,ESE,113,0.0,0.0,75,0.00,,,0.00,WUHU216HW,2013-02-03 12:20:00,
2013-02-03 07:25:00,11.1,4.6,30.05,ESE,113,0.0,0.0,75,0.00,,,0.00,WUHU216HW,2013-02-03 12:25:00,
2013-02-03 07:30:00,10.9,4.4,30.05,ESE,113,0.0,0.0,75,0.00,,,0.00,WUHU216HW,2013-02-03 12:30:00,
2013-02-03 07:35:00,10.7,4.2,30.05,ESE,113,0.0,0.0,75,0.00,,,0.00,WUHU216HW,2013-02-03 12:35:00,
2013-02-03 07:40:00,10.7,4.2,30.04,ESE,113,0.0,0.0,75,0.00,,,0.00,WUHU216HW,2013-02-03 12:40:00,
2013-02-03 07:45:00,10.7,4.2,30.04,ESE,113,0.0,0.0,75,0.00,,,0.00,WUHU216HW,2013-02-03 12:45:00,
2013-02-03 07:50:00,10.7,4.2,30.05,ESE,113,0.0,0.0,75,0.00,,,0.00,WUHU216HW,2013-02-03 12:50:00,
2013-02-03 07:55:00,10.9,4.4,30.04,ESE,113,0.0,0.0,75,0.00,,,0.00,WUHU216HW,2013-02-03 12:55:00,
2013-02-03 08:01:00,11.1,4.9,30.04,ESE,113,0.0,0.0,76,0.00,,,0.00,WUHU216HW,2013-02-03 13:01:00,
2013-02-03 08:06:00,11.4,5.2,30.05,ESE,113,0.0,0.0,76,0.00,,,0.00,WUHU216HW,2013-02-03 13:06:00,
2013-02-03 08:11:00,12.0,5.8,30.05,ESE,113,0.0,0.0,76,0.00,,,0.00,WUHU216HW,2013-02-03 13:11:00,
2013-02-03 08:16:00,12.3,6.1,30.05,ESE,113,0.0,0.0,76,0.00,,,0.00,WUHU216HW,2013-02-03 13:16:00,
2013-02-03 08:21:00,12.7,6.5,30.05,ESE,113,0.0,0.0,76,0.00,,,0.00,WUHU216HW,2013-02-03 13:21:00,
2013-02-03 08:26:00,13.2,7.0,30.05,ESE,113,0.0,0.0,76,0.00,,,0.00,WUHU216HW,2013-02-03 13:26:00,
2013-02-03 08:31:00,13.2,7.0,30.05,ESE,113,0.0,0.0,76,0.00,,,0.00,WUHU216HW,2013-02-03 13:31:00,
2013-02-03 08:36:00,13.8,7.6,30.05,ESE,113,0.0,0.0,76,0.00,,,0.00,WUHU216HW,2013-02-03 13:36:00,
2013-02-03 08:43:00,14.5,8.6,30.05,ENE,68,0.0,0.0,77,0.00,,,0.00,WUHU216HW,2013-02-03 13:43:00,
2013-02-03 08:48:00,15.6,9.6,30.05,ENE,68,0.0,0.0,77,0.00,,,0.00,WUHU216HW,2013-02-03 13:48:00,
2013-02-03 08:53:00,15.9,10.0,30.05,NE,45,0.0,1.0,77,0.00,,,0.00,WUHU216HW,2013-02-03 13:53:00,
2013-02-03 08:58:00,16.5,10.5,30.05,SE,135,1.0,2.0,77,0.00,,,0.00,WUHU216HW,2013-02-03 13:58:00,
2013-02-03 09:03:00,17.4,11.3,30.05,SE,135,3.0,3.0,77,0.00,,,0.00,WUHU216HW,2013-02-03 14:03:00,
2013-02-03 09:08:00,18.1,11.7,30.05,ESE,113,0.0,3.0,76,0.00,,,0.00,WUHU216HW,2013-02-03 14:08:00,
2013-02-03 09:13:00,19.0,12.5,30.05,SE,135,0.0,0.0,76,0.00,,,0.00,WUHU216HW,2013-02-03 14:13:00,
2013-02-03 09:19:00,19.9,13.4,30.05,SE,135,2.0,3.0,76,0.00,,,0.00,WUHU216HW,2013-02-03 14:19:00,
2013-02-03 09:24:00,20.8,14.0,30.05,SE,135,0.0,3.0,75,0.00,,,0.00,WUHU216HW,2013-02-03 14:24:00,
2013-02-03 09:29:00,21.3,14.3,30.05,SE,135,0.0,3.0,74,0.00,,,0.00,WUHU216HW,2013-02-03 14:29:00,
2013-02-03 09:34:00,21.9,14.8,30.04,SE,135,0.0,3.0,74,0.00,,,0.00,WUHU216HW,2013-02-03 14:34:00,
2013-02-03 09:40:00,22.8,15.1,30.04,SE,135,0.0,3.0,72,0.00,,,0.00,WUHU216HW,2013-02-03 14:40:00,
2013-02-03 09:45:00,23.1,15.1,30.04,NE,45,3.0,3.0,71,0.00,,,0.00,WUHU216HW,2013-02-03 14:45:00,
2013-02-03 09:50:00,23.5,15.2,30.04,ENE,68,0.0,3.0,70,0.00,,,0.00,WUHU216HW,2013-02-03 14:50:00,
2013-02-03 09:55:00,24.0,15.6,30.04,ESE,113,0.0,0.0,70,0.00,,,0.00,WUHU216HW,2013-02-03 14:55:00,
2013-02-03 10:00:00,24.6,15.6,30.04,ENE,68,0.0,0.0,69,0.00,,,0.00,WUHU216HW,2013-02-03 15:00:00,
2013-02-03 10:05:00,24.6,15.4,30.03,SE,135,3.0,3.0,68,0.00,,,0.00,WUHU216HW,2013-02-03 15:05:00,
2013-02-03 10:10:00,24.9,15.4,30.03,SSE,158,0.0,3.0,67,0.00,,,0.00,WUHU216HW,2013-02-03 15:10:00,
2013-02-03 10:15:00,25.3,15.8,30.03,SE,135,0.0,3.0,67,0.00,,,0.00,WUHU216HW,2013-02-03 15:15:00,
2013-02-03 10:20:00,25.7,15.8,30.02,SE,129,3.0,4.0,66,0.00,,,0.00,WUHU216HW,2013-02-03 15:20:00,
2013-02-03 10:26:00,26.2,15.6,30.03,SE,135,4.0,4.0,65,0.00,,,0.00,WUHU216HW,2013-02-03 15:26:00,
2013-02-03 10:31:00,26.4,15.8,30.02,SE,135,8.0,10.0,64,0.00,,,0.00,WUHU216HW,2013-02-03 15:31:00,
2013-02-03 10:36:00,27.1,16.5,30.02,South,180,6.0,10.0,64,0.00,,,0.00,WUHU216HW,2013-02-03 15:36:00,
2013-02-03 10:41:00,27.6,16.7,30.02,South,180,5.0,6.0,63,0.00,,,0.00,WUHU216HW,2013-02-03 15:41:00,
2013-02-03 10:46:00,27.6,16.3,30.02,SSW,203,0.0,5.0,62,0.00,,,0.00,WUHU216HW,2013-02-03 15:46:00,
2013-02-03 10:52:00,28.0,16.7,30.01,SE,135,0.0,5.0,62,0.00,,,0.00,WUHU216HW,2013-02-03 15:52:00,
2013-02-03 10:58:00,28.0,15.9,30.01,SE,135,0.0,3.0,60,0.00,,,0.00,WUHU216HW,2013-02-03 15:58:00,
2013-02-03 11:03:00,28.0,16.1,30.01,South,189,6.0,9.0,60,0.00,,,0.00,WUHU216HW,2013-02-03 16:03:00,
2013-02-03 11:08:00,28.5,16.0,30.01,ESE,113,0.0,9.0,59,0.00,,,0.00,WUHU216HW,2013-02-03 16:08:00,
2013-02-03 11:13:00,28.0,15.1,30.00,ENE,68,0.0,3.0,58,0.00,,,0.00,WUHU216HW,2013-02-03 16:13:00,
2013-02-03 11:18:00,27.6,14.7,29.99,ESE,113,0.0,2.0,58,0.00,,,0.00,WUHU216HW,2013-02-03 16:18:00,
2013-02-03 11:23:00,27.5,14.6,29.99,ESE,113,0.0,2.0,58,0.00,,,0.00,WUHU216HW,2013-02-03 16:23:00,
2013-02-03 11:28:00,27.3,14.4,29.98,NE,45,0.0,0.0,58,0.00,,,0.00,WUHU216HW,2013-02-03 16:28:00,
2013-02-03 11:33:00,27.1,13.8,29.98,NE,45,0.0,0.0,57,0.00,,,0.00,WUHU216HW,2013-02-03 16:33:00,
2013-02-03 11:38:00,26.4,13.1,29.97,NE,45,0.0,0.0,57,0.00,,,0.00,WUHU216HW,2013-02-03 16:38:00,
2013-02-03 11:43:00,26.4,13.5,29.97,North,0,0.0,3.0,58,0.00,,,0.00,WUHU216HW,2013-02-03 16:43:00,
2013-02-03 11:48:00,27.5,14.7,29.97,North,0,0.0,3.0,58,0.00,,,0.00,WUHU216HW,2013-02-03 16:48:00,
2013-02-03 11:53:00,28.2,15.3,29.97,SSE,158,5.0,5.0,58,0.00,,,0.00,WUHU216HW,2013-02-03 16:53:00,
2013-02-03 11:59:00,29.1,16.1,29.97,SE,129,4.0,6.0,58,0.00,,,0.00,WUHU216HW,2013-02-03 16:59:00,
2013-02-03 12:04:00,29.8,15.9,29.96,SE,135,2.0,6.0,56,0.00,,,0.00,WUHU216HW,2013-02-03 17:04:00,
2013-02-03 12:09:00,29.4,15.2,29.96,SSE,158,4.0,6.0,55,0.00,,,0.00,WUHU216HW,2013-02-03 17:09:00,
2013-02-03 12:14:00,29.3,15.0,29.96,SSE,158,8.0,8.0,55,0.00,,,0.00,WUHU216HW,2013-02-03 17:14:00,
2013-02-03 12:19:00,28.9,14.3,29.96,SE,135,0.0,8.0,54,0.00,,,0.00,WUHU216HW,2013-02-03 17:19:00,
2013-02-03 12:24:00,28.5,14.0,29.95,SSE,158,6.0,6.0,54,0.00,,,0.00,WUHU216HW,2013-02-03 17:24:00,
2013-02-03 12:29:00,28.2,13.6,29.95,WSW,248,0.0,6.0,54,0.00,,,0.00,WUHU216HW,2013-02-03 17:29:00,
2013-02-03 12:34:00,28.0,13.4,29.94,South,180,3.0,5.0,54,0.00,,,0.00,WUHU216HW,2013-02-03 17:34:00,
2013-02-03 12:39:00,28.4,14.2,29.94,NE,45,0.0,5.0,55,0.00,,,0.00,WUHU216HW,2013-02-03 17:39:00,
2013-02-03 12:44:00,28.2,13.6,29.94,South,180,3.0,3.0,54,0.00,,,0.00,WUHU216HW,2013-02-03 17:44:00,
2013-02-03 12:49:00,28.7,14.5,29.93,South,180,0.0,3.0,55,0.00,,,0.00,WUHU216HW,2013-02-03 17:49:00,
2013-02-03 12:54:00,29.1,14.9,29.93,South,180,0.0,0.0,55,0.00,,,0.00,WUHU216HW,2013-02-03 17:54:00,
2013-02-03 12:59:00,29.1,14.5,29.92,SSE,158,2.0,2.0,54,0.00,,,0.00,WUHU216HW,2013-02-03 17:59:00,
2013-02-03 13:04:00,28.9,14.3,29.92,SSE,158,0.0,2.0,54,0.00,,,0.00,WUHU216HW,2013-02-03 18:04:00,
2013-02-03 13:10:00,28.7,14.1,29.91,South,180,3.0,6.0,54,0.00,,,0.00,WUHU216HW,2013-02-03 18:10:00,
2013-02-03 13:15:00,28.5,14.0,29.91,SSE,158,5.0,5.0,53,0.00,,,0.00,WUHU216HW,2013-02-03 18:15:00,
2013-02-03 13:20:00,28.5,13.6,29.91,WNW,293,2.0,6.0,53,0.00,,,0.00,WUHU216HW,2013-02-03 18:20:00,
2013-02-03 13:25:00,28.2,13.6,29.91,South,180,4.0,6.0,54,0.00,,,0.00,WUHU216HW,2013-02-03 18:25:00,
2013-02-03 13:30:00,28.7,14.1,29.91,SSE,158,0.0,4.0,54,0.00,,,0.00,WUHU216HW,2013-02-03 18:30:00,
2013-02-03 13:35:00,28.9,14.3,29.90,SSE,158,0.0,2.0,54,0.00,,,0.00,WUHU216HW,2013-02-03 18:35:00,
2013-02-03 13:40:00,29.1,14.5,29.90,SSE,158,2.0,5.0,54,0.00,,,0.00,WUHU216HW,2013-02-03 18:40:00,
2013-02-03 13:45:00,29.1,14.5,29.90,SSE,158,0.0,5.0,53,0.00,,,0.00,WUHU216HW,2013-02-03 18:45:00,
2013-02-03 13:50:00,28.7,13.7,29.90,WSW,248,0.0,0.0,53,0.00,,,0.00,WUHU216HW,2013-02-03 18:50:00,
2013-02-03 13:55:00,28.5,13.6,29.90,SE,135,1.0,1.0,53,0.00,,,0.00,WUHU216HW,2013-02-03 18:55:00,
2013-02-03 14:00:00,28.4,13.8,29.89,South,180,4.0,5.0,54,0.00,,,0.00,WUHU216HW,2013-02-03 19:00:00,
2013-02-03 14:05:00,28.2,13.6,29.89,North,0,3.0,5.0,54,0.00,,,0.00,WUHU216HW,2013-02-03 19:05:00,
2013-02-03 14:10:00,28.0,13.4,29.89,NNE,12,5.0,6.0,54,0.00,,,0.00,WUHU216HW,2013-02-03 19:10:00,
2013-02-03 14:15:00,27.6,13.1,29.89,NNW,338,5.0,6.0,54,0.00,,,0.00,WUHU216HW,2013-02-03 19:15:00,
2013-02-03 14:20:00,27.3,13.1,29.89,NNW,332,6.0,7.0,55,0.00,,,0.00,WUHU216HW,2013-02-03 19:20:00,
2013-02-03 14:25:00,27.1,13.0,29.89,West,270,0.0,7.0,55,0.00,,,0.00,WUHU216HW,2013-02-03 19:25:00,
2013-02-03 14:30:00,27.1,13.0,29.89,NE,45,1.0,5.0,55,0.00,,,0.00,WUHU216HW,2013-02-03 19:30:00,
2013-02-03 14:35:00,26.7,12.8,29.89,NW,311,5.0,9.0,55,0.00,,,0.00,WUHU216HW,2013-02-03 19:35:00,
2013-02-03 14:40:00,26.6,12.8,29.89,NNW,338,5.0,9.0,56,0.00,,,0.00,WUHU216HW,2013-02-03 19:40:00,
2013-02-03 14:45:00,26.4,12.7,29.89,NW,315,0.0,5.0,56,0.00,,,0.00,WUHU216HW,2013-02-03 19:45:00,
2013-02-03 14:50:00,26.6,12.8,29.89,NE,45,3.0,4.0,56,0.00,,,0.00,WUHU216HW,2013-02-03 19:50:00,
2013-02-03 14:55:00,26.4,12.7,29.89,NNW,338,3.0,4.0,56,0.00,,,0.00,WUHU216HW,2013-02-03 19:55:00,
2013-02-03 15:00:00,26.4,12.7,29.89,NW,310,3.0,8.0,56,0.00,,,0.00,WUHU216HW,2013-02-03 20:00:00,
2013-02-03 15:05:00,26.2,12.9,29.89,NNW,338,0.0,8.0,56,0.00,,,0.00,WUHU216HW,2013-02-03 20:05:00,
2013-02-03 15:10:00,26.0,12.8,29.89,WNW,293,2.0,4.0,57,0.00,,,0.00,WUHU216HW,2013-02-03 20:10:00,
2013-02-03 15:15:00,25.8,12.6,29.89,North,10,2.0,4.0,57,0.00,,,0.00,WUHU216HW,2013-02-03 20:15:00,
2013-02-03 15:21:00,25.8,12.6,29.89,NNE,23,2.0,3.0,57,0.00,,,0.00,WUHU216HW,2013-02-03 20:21:00,
2013-02-03 15:26:00,25.8,12.6,29.89,North,0,0.0,3.0,57,0.00,,,0.00,WUHU216HW,2013-02-03 20:26:00,
2013-02-03 15:31:00,25.7,12.4,29.89,NNW,338,2.0,3.0,57,0.00,,,0.00,WUHU216HW,2013-02-03 20:31:00,
2013-02-03 15:36:00,25.8,12.4,29.89,NNE,23,0.0,3.0,57,0.00,,,0.00,WUHU216HW,2013-02-03 20:36:00,
2013-02-03 15:41:00,25.7,12.4,29.88,NE,45,1.0,3.0,57,0.00,,,0.00,WUHU216HW,2013-02-03 20:41:00,
2013-02-03 15:46:00,25.5,12.3,29.88,NE,45,2.0,3.0,57,0.00,,,0.00,WUHU216HW,2013-02-03 20:46:00,
2013-02-03 15:52:00,25.3,12.1,29.88,NE,45,0.0,3.0,57,0.00,,,0.00,WUHU216HW,2013-02-03 20:52:00,
2013-02-03 15:57:00,25.3,12.1,29.88,WNW,293,0.0,0.0,57,0.00,,,0.00,WUHU216HW,2013-02-03 20:57:00,
2013-02-03 16:02:00,25.5,12.7,29.88,WNW,293,1.0,2.0,58,0.00,,,0.00,WUHU216HW,2013-02-03 21:02:00,
2013-02-03 16:07:00,25.5,12.3,29.88,NNW,338,0.0,2.0,57,0.00,,,0.00,WUHU216HW,2013-02-03 21:07:00,
2013-02-03 16:12:00,25.5,12.7,29.88,NW,315,3.0,5.0,58,0.00,,,0.00,WUHU216HW,2013-02-03 21:12:00,
2013-02-03 16:17:00,25.3,12.5,29.88,North,0,0.0,5.0,58,0.00,,,0.00,WUHU216HW,2013-02-03 21:17:00,
2013-02-03 16:22:00,25.3,12.5,29.88,North,0,0.0,2.0,58,0.00,,,0.00,WUHU216HW,2013-02-03 21:22:00,
2013-02-03 16:27:00,25.1,12.4,29.88,WSW,248,0.0,0.0,58,0.00,,,0.00,WUHU216HW,2013-02-03 21:27:00,
2013-02-03 16:32:00,25.1,12.4,29.88,WSW,248,0.0,0.0,58,0.00,,,0.00,WUHU216HW,2013-02-03 21:32:00,
2013-02-03 16:37:00,25.1,12.4,29.88,WSW,248,0.0,0.0,58,0.00,,,0.00,WUHU216HW,2013-02-03 21:37:00,
2013-02-03 16:42:00,24.9,12.2,29.88,WNW,293,1.0,1.0,58,0.00,,,0.00,WUHU216HW,2013-02-03 21:42:00,
2013-02-03 16:47:00,24.9,12.2,29.88,WNW,293,0.0,1.0,58,0.00,,,0.00,WUHU216HW,2013-02-03 21:47:00,
2013-02-03 16:52:00,24.9,12.2,29.88,NW,315,4.0,4.0,58,0.00,,,0.00,WUHU216HW,2013-02-03 21:52:00,
2013-02-03 16:57:00,24.9,12.2,29.88,NNW,338,0.0,4.0,58,0.00,,,0.00,WUHU216HW,2013-02-03 21:57:00,
2013-02-03 17:02:00,24.8,12.2,29.87,NNW,338,0.0,0.0,58,0.00,,,0.00,WUHU216HW,2013-02-03 22:02:00,
2013-02-03 17:07:00,24.6,11.9,29.87,NNW,338,0.0,0.0,58,0.00,,,0.00,WUHU216HW,2013-02-03 22:07:00,
2013-02-03 17:14:00,24.6,11.9,29.87,NNW,338,0.0,0.0,58,0.00,,,0.00,WUHU216HW,2013-02-03 22:14:00,
2013-02-03 17:19:00,24.6,12.3,29.87,NNW,338,0.0,0.0,59,0.00,,,0.00,WUHU216HW,2013-02-03 22:19:00,
2013-02-03 17:24:00,24.4,12.1,29.87,NNW,338,0.0,0.0,59,0.00,,,0.00,WUHU216HW,2013-02-03 22:24:00,
2013-02-03 17:29:00,24.4,12.1,29.87,NNW,338,0.0,1.0,59,0.00,,,0.00,WUHU216HW,2013-02-03 22:29:00,
2013-02-03 17:35:00,24.4,12.1,29.86,NNW,338,0.0,1.0,59,0.00,,,0.00,WUHU216HW,2013-02-03 22:35:00,
2013-02-03 17:40:00,24.4,12.1,29.87,NNW,338,0.0,0.0,59,0.00,,,0.00,WUHU216HW,2013-02-03 22:40:00,
2013-02-03 17:45:00,24.4,12.1,29.86,NNW,338,0.0,0.0,59,0.00,,,0.00,WUHU216HW,2013-02-03 22:45:00,
2013-02-03 17:50:00,24.2,11.9,29.86,NNW,338,0.0,0.0,59,0.00,,,0.00,WUHU216HW,2013-02-03 22:50:00,
2013-02-03 17:55:00,24.0,11.7,29.86,NNW,338,0.0,0.0,59,0.00,,,0.00,WUHU216HW,2013-02-03 22:55:00,
2013-02-03 18:00:00,24.0,11.7,29.86,NNW,338,0.0,0.0,59,0.00,,,0.00,WUHU216HW,2013-02-03 23:00:00,
2013-02-03 18:05:00,24.0,11.7,29.86,NNW,338,0.0,0.0,59,0.00,,,0.00,WUHU216HW,2013-02-03 23:05:00,
2013-02-03 18:11:00,24.0,12.2,29.86,NNW,338,0.0,0.0,60,0.00,,,0.00,WUHU216HW,2013-02-03 23:11:00,
2013-02-03 18:16:00,24.0,12.2,29.86,NNW,338,0.0,0.0,60,0.00,,,0.00,WUHU216HW,2013-02-03 23:16:00,
2013-02-03 18:21:00,24.0,12.2,29.86,NNW,338,0.0,0.0,60,0.00,,,0.00,WUHU216HW,2013-02-03 23:21:00,
2013-02-03 18:27:00,24.0,12.5,29.86,NNW,338,0.0,0.0,61,0.00,,,0.00,WUHU216HW,2013-02-03 23:27:00,
2013-02-03 18:32:00,24.0,12.5,29.86,NNW,338,0.0,0.0,61,0.00,,,0.00,WUHU216HW,2013-02-03 23:32:00,
2013-02-03 18:37:00,23.9,12.3,29.86,NNW,338,0.0,0.0,61,0.00,,,0.00,WUHU216HW,2013-02-03 23:37:00,
2013-02-03 18:42:00,23.7,12.1,29.86,NNW,338,0.0,0.0,61,0.00,,,0.00,WUHU216HW,2013-02-03 23:42:00,
2013-02-03 18:47:00,23.7,12.1,29.86,NNW,338,0.0,0.0,61,0.00,,,0.00,WUHU216HW,2013-02-03 23:47:00,
2013-02-03 18:53:00,23.5,12.0,29.86,NNW,338,0.0,0.0,61,0.00,,,0.00,WUHU216HW,2013-02-03 23:53:00,
2013-02-03 18:58:00,23.3,11.8,29.86,NNW,338,0.0,0.0,61,0.00,,,0.00,WUHU216HW,2013-02-03 23:58:00,
2013-02-03 19:03:00,23.1,12.0,29.86,NNW,338,0.0,0.0,62,0.00,,,0.00,WUHU216HW,2013-02-04 00:03:00,
2013-02-03 19:09:00,23.1,12.0,29.86,NNW,338,0.0,0.0,62,0.00,,,0.00,WUHU216HW,2013-02-04 00:09:00,
2013-02-03 19:14:00,23.0,11.8,29.86,NNW,338,0.0,0.0,62,0.00,,,0.00,WUHU216HW,2013-02-04 00:14:00,
2013-02-03 19:19:00,23.0,11.8,29.86,NNW,338,0.0,0.0,62,0.00,,,0.00,WUHU216HW,2013-02-04 00:19:00,
2013-02-03 19:24:00,22.8,11.6,29.86,NNW,338,0.0,0.0,62,0.00,,,0.00,WUHU216HW,2013-02-04 00:24:00,
2013-02-03 19:29:00,22.8,11.6,29.86,NNW,338,0.0,0.0,62,0.00,,,0.00,WUHU216HW,2013-02-04 00:29:00,
2013-02-03 19:35:00,22.8,12.0,29.86,NNW,338,0.0,0.0,63,0.00,,,0.00,WUHU216HW,2013-02-04 00:35:00,
2013-02-03 19:40:00,22.8,12.0,29.86,NNW,338,0.0,0.0,63,0.00,,,0.00,WUHU216HW,2013-02-04 00:40:00,
2013-02-03 19:46:00,22.8,12.0,29.86,NNW,338,0.0,0.0,63,0.00,,,0.00,WUHU216HW,2013-02-04 00:46:00,
2013-02-03 19:51:00,22.8,12.0,29.86,NNW,338,0.0,0.0,63,0.00,,,0.00,WUHU216HW,2013-02-04 00:51:00,
2013-02-03 19:57:00,22.8,12.0,29.86,NNW,338,0.0,0.0,63,0.00,,,0.00,WUHU216HW,2013-02-04 00:57:00,
2013-02-03 20:02:00,22.8,12.0,29.86,NNW,338,0.0,0.0,63,0.00,,,0.00,WUHU216HW,2013-02-04 01:02:00,
2013-02-03 20:07:00,22.8,12.0,29.86,NNW,338,0.0,0.0,63,0.00,,,0.00,WUHU216HW,2013-02-04 01:07:00,
2013-02-03 20:12:00,22.8,12.3,29.86,NNW,338,0.0,0.0,64,0.00,,,0.00,WUHU216HW,2013-02-04 01:12:00,
2013-02-03 20:18:00,22.6,12.2,29.86,NNW,338,0.0,0.0,64,0.00,,,0.00,WUHU216HW,2013-02-04 01:18:00,
2013-02-03 20:23:00,22.4,12.0,29.86,NNW,338,0.0,0.0,64,0.00,,,0.00,WUHU216HW,2013-02-04 01:23:00,
2013-02-03 20:28:00,22.2,11.8,29.86,NNW,338,0.0,0.0,64,0.00,,,0.00,WUHU216HW,2013-02-04 01:28:00,
2013-02-03 20:34:00,22.2,11.8,29.86,NNW,338,0.0,0.0,64,0.00,,,0.00,WUHU216HW,2013-02-04 01:34:00,
2013-02-03 20:39:00,22.1,11.8,29.86,NNW,338,0.0,0.0,64,0.00,,,0.00,WUHU216HW,2013-02-04 01:39:00,
2013-02-03 20:45:00,22.1,11.7,29.86,NNW,338,0.0,0.0,64,0.00,,,0.00,WUHU216HW,2013-02-04 01:45:00,
2013-02-03 20:50:00,22.1,11.7,29.86,NNW,338,0.0,0.0,64,0.00,,,0.00,WUHU216HW,2013-02-04 01:50:00,
2013-02-03 20:55:00,22.1,11.7,29.86,NNW,338,0.0,0.0,64,0.00,,,0.00,WUHU216HW,2013-02-04 01:55:00,
2013-02-03 21:00:00,22.1,11.7,29.86,NNW,338,0.0,0.0,64,0.00,,,0.00,WUHU216HW,2013-02-04 02:00:00,
2013-02-03 21:06:00,22.1,11.7,29.86,NNW,338,0.0,0.0,64,0.00,,,0.00,WUHU216HW,2013-02-04 02:06:00,
2013-02-03 21:13:00,22.1,11.7,29.86,NNW,338,0.0,0.0,64,0.00,,,0.00,WUHU216HW,2013-02-04 02:13:00,
2013-02-03 21:18:00,22.1,11.7,29.86,NNW,338,0.0,0.0,64,0.00,,,0.00,WUHU216HW,2013-02-04 02:18:00,
2013-02-03 21:24:00,22.1,11.7,29.86,NNW,338,0.0,0.0,64,0.00,,,0.00,WUHU216HW,2013-02-04 02:24:00,
2013-02-03 21:29:00,21.9,11.5,29.86,NNW,338,0.0,0.0,64,0.00,,,0.00,WUHU216HW,2013-02-04 02:29:00,
2013-02-03 21:34:00,21.9,11.5,29.85,NNW,338,0.0,0.0,64,0.00,,,0.00,WUHU216HW,2013-02-04 02:34:00,
2013-02-03 21:39:00,21.9,11.5,29.85,NNW,338,0.0,0.0,64,0.00,,,0.00,WUHU216HW,2013-02-04 02:39:00,
2013-02-03 21:44:00,21.7,11.3,29.85,North,0,0.0,0.0,64,0.00,,,0.00,WUHU216HW,2013-02-04 02:44:00,
2013-02-03 21:49:00,21.7,11.3,29.85,North,0,0.0,0.0,64,0.00,,,0.00,WUHU216HW,2013-02-04 02:49:00,
2013-02-03 21:54:00,21.5,11.1,29.85,North,0,0.0,0.0,64,0.00,,,0.00,WUHU216HW,2013-02-04 02:54:00,
2013-02-03 22:00:00,21.5,11.1,29.85,North,0,3.0,3.0,64,0.00,,,0.00,WUHU216HW,2013-02-04 03:00:00,
2013-02-03 22:05:00,21.5,11.1,29.85,North,0,0.0,3.0,64,0.00,,,0.00,WUHU216HW,2013-02-04 03:05:00,
2013-02-03 22:10:00,21.3,11.0,29.84,North,0,0.0,0.0,64,0.00,,,0.00,WUHU216HW,2013-02-04 03:10:00,
2013-02-03 22:15:00,21.3,11.0,29.84,North,0,0.0,0.0,64,0.00,,,0.00,WUHU216HW,2013-02-04 03:15:00,
2013-02-03 22:20:00,21.3,11.0,29.84,North,0,0.0,0.0,64,0.00,,,0.00,WUHU216HW,2013-02-04 03:20:00,
2013-02-03 22:25:00,21.3,11.0,29.84,North,0,0.0,0.0,64,0.00,,,0.00,WUHU216HW,2013-02-04 03:25:00,
2013-02-03 22:30:00,21.0,11.0,29.84,North,0,0.0,0.0,65,0.00,,,0.00,WUHU216HW,2013-02-04 03:30:00,
2013-02-03 22:35:00,21.0,11.0,29.84,North,0,0.0,0.0,65,0.00,,,0.00,WUHU216HW,2013-02-04 03:35:00,
2013-02-03 22:40:00,20.8,10.8,29.84,North,0,0.0,0.0,65,0.00,,,0.00,WUHU216HW,2013-02-04 03:40:00,
2013-02-03 22:46:00,20.8,10.8,29.84,North,0,0.0,0.0,65,0.00,,,0.00,WUHU216HW,2013-02-04 03:46:00,
2013-02-03 22:51:00,20.4,10.4,29.84,North,0,0.0,0.0,65,0.00,,,0.00,WUHU216HW,2013-02-04 03:51:00,
2013-02-03 22:57:00,20.4,10.4,29.83,North,0,0.0,0.0,65,0.00,,,0.00,WUHU216HW,2013-02-04 03:57:00,
2013-02-03 23:02:00,20.4,10.4,29.83,North,0,0.0,0.0,65,0.00,,,0.00,WUHU216HW,2013-02-04 04:02:00,
2013-02-03 23:07:00,20.4,10.8,29.83,North,0,0.0,0.0,66,0.00,,,0.00,WUHU216HW,2013-02-04 04:07:00,
2013-02-03 23:12:00,20.4,10.8,29.83,North,0,0.0,0.0,66,0.00,,,0.00,WUHU216HW,2013-02-04 04:12:00,
2013-02-03 23:17:00,20.4,10.8,29.83,North,0,0.0,0.0,66,0.00,,,0.00,WUHU216HW,2013-02-04 04:17:00,
2013-02-03 23:22:00,20.3,10.6,29.83,North,0,0.0,0.0,66,0.00,,,0.00,WUHU216HW,2013-02-04 04:22:00,
2013-02-03 23:27:00,20.3,10.6,29.83,North,0,0.0,0.0,67,0.00,,,0.00,WUHU216HW,2013-02-04 04:27:00,
2013-02-03 23:32:00,20.1,10.8,29.83,North,0,0.0,0.0,67,0.00,,,0.00,WUHU216HW,2013-02-04 04:32:00,
2013-02-03 23:37:00,19.9,10.6,29.83,North,0,0.0,0.0,67,0.00,,,0.00,WUHU216HW,2013-02-04 04:37:00,
2013-02-03 23:42:00,19.7,10.4,29.83,North,0,0.0,0.0,67,0.00,,,0.00,WUHU216HW,2013-02-04 04:42:00,
2013-02-03 23:47:00,19.5,10.2,29.83,North,0,0.0,0.0,67,0.00,,,0.00,WUHU216HW,2013-02-04 04:47:00,
2013-02-03 23:52:00,19.4,10.0,29.83,North,0,0.0,0.0,67,0.00,,,0.00,WUHU216HW,2013-02-04 04:52:00,
2013-02-03 23:58:00,19.0,9.7,29.83,North,0,0.0,0.0,67,0.00,,,0.00,WUHU216HW,2013-02-04 04:58:00,